Wind_Speed
5 5 5 6 6 7 7 7 7 7 7 8 8 8 8 8 8 8 9 8 9 10 10 10 11 11 11 12 13 13 13 13 13 14 15 15 15 15 15 15 16 16 16 16
6 6 6 6 6 6 6 7 7 7 7 7 7 7 8 8 8 8 8 8 8 10 10 10 11 12 12 12 13 14 14 14 15 15 16 16 16 16 17 17 17 16 16 16
6 6 6 6 6 6 6 6 6 6 6 7 7 7 7 7 8 8 8 8 9 10 10 11 12 12 13 13 13 14 15 15 16 16 16 17 17 17 18 18 18 18 18 17
7 6 6 6 6 6 6 6 6 6 6 6 6 7 7 8 7 7 8 8 9 10 11 12 12 13 13 13 14 15 16 16 17 17 17 18 18 19 18 18 18 18 18 18
7 6 6 6 6 6 6 6 6 6 6 6 7 7 7 9 9 9 9 9 9 11 11 11 12 13 14 14 15 16 16 17 18 18 18 19 19 19 18 18 18 19 19 18
7 7 6 6 6 6 6 7 7 7 7 7 7 8 8 9 10 10 11 10 10 11 12 12 12 13 14 14 15 16 17 17 17 18 18 19 19 19 19 19 19 19 19 19
7 7 7 6 6 7 7 7 8 8 8 8 8 9 9 9 10 11 12 12 12 13 13 13 14 15 15 16 16 17 17 18 19 19 19 20 20 20 20 20 20 19 20 20
7 7 7 7 7 8 8 8 8 9 10 10 10 10 10 10 11 11 12 13 14 15 15 15 15 16 17 18 18 19 19 19 19 20 20 20 20 20 20 20 20 20 20 21
8 8 8 8 8 8 9 9 9 10 11 12 12 11 11 11 12 12 13 14 15 16 16 17 17 18 19 19 19 20 20 19 20 20 21 21 21 21 21 21 21 21 21 21
9 9 9 8 9 9 9 9 10 10 11 11 12 12 12 12 13 14 14 15 16 16 17 18 18 19 19 20 21 22 21 21 21 21 21 22 22 22 22 21 21 21 22 22
10 10 10 9 9 9 10 10 11 11 11 12 13 13 13 14 14 14 15 15 16 16 17 18 19 20 20 21 22 22 22 23 23 23 23 23 23 22 22 22 22 22 22 22
10 10 11 10 10 10 11 12 12 13 13 13 14 14 15 16 16 15 16 17 17 18 18 19 20 21 22 22 23 23 23 24 24 24 24 24 24 23 23 23 24 24 23 23
11 11 12 12 11 12 12 12 13 14 14 14 15 15 16 16 17 17 18 18 19 19 20 21 22 22 23 23 24 24 24 24 25 25 25 25 24 24 24 24 25 25 25 25
13 13 13 13 13 14 14 14 15 15 16 16 17 17 16 17 18 19 19 20 20 21 21 22 23 23 24 24 24 24 25 26 25 25 25 25 24 24 24 24 25 25 25 26
15 14 14 14 15 15 16 16 16 17 17 18 18 19 18 19 19 20 20 21 21 22 23 23 25 25 24 24 25 25 25 26 26 26 26 25 25 25 25 25 26 26 26 26
16 16 16 16 16 16 17 17 18 18 19 19 19 19 19 21 21 21 22 22 23 23 24 25 26 26 26 26 26 26 26 26 26 26 26 26 26 25 26 26 26 26 26 27
16 17 17 17 17 18 18 18 18 19 19 20 20 20 21 22 23 23 24 24 24 25 25 26 26 26 26 26 26 26 26 26 26 26 27 27 26 26 26 26 26 27 27 27
17 17 18 18 19 20 19 18 19 19 19 20 21 21 22 23 24 24 25 25 25 26 26 27 27 27 27 27 27 27 26 27 27 27 27 27 27 26 26 27 27 27 28 27
17 18 19 19 20 21 20 19 19 20 20 21 22 22 23 23 24 25 26 26 26 26 26 27 27 27 27 28 28 28 28 28 28 28 28 28 28 28 27 27 28 28 28 28
18 18 20 20 20 21 20 20 20 21 21 21 22 23 23 23 24 25 25 26 27 27 27 27 27 27 28 28 28 28 28 28 28 28 28 28 29 29 28 28 28 28 28 28
19 20 21 21 22 23 22 22 21 21 21 22 22 23 24 24 24 25 25 26 27 27 27 27 27 28 28 28 28 28 29 29 29 28 28 29 29 29 29 29 29 29 29 29
21 22 22 23 24 24 24 24 24 24 23 23 23 23 24 24 24 24 25 26 27 28 28 27 27 28 28 27 27 28 28 28 28 28 28 29 29 29 29 30 30 29 29 29
22 23 23 24 24 25 26 26 26 26 26 25 25 24 24 25 25 26 26 27 28 28 28 28 28 28 28 28 28 27 28 28 27 27 27 28 29 29 29 30 30 30 30 30
23 23 24 24 24 25 25 26 27 27 27 26 26 25 25 26 26 27 27 27 28 28 29 29 29 29 29 28 28 28 28 28 28 28 28 28 29 29 29 30 30 31 31 30
25 24 25 25 25 25 26 26 27 27 27 27 26 26 26 27 27 27 27 27 28 29 29 29 29 29 29 29 28 29 29 29 28 28 29 29 29 29 30 30 30 31 31 30
24 25 25 25 25 26 26 26 27 27 27 27 27 27 28 28 28 28 28 28 29 29 29 29 29 29 29 29 29 29 29 28 28 28 29 30 30 30 30 30 31 31 31 30
Wind_Direction
274 274 261 257 256 256 261 263 265 266 268 269 273 276 269 264 262 266 272 270 266 263 263 261 263 267 267 267 268 269 272 275 277 274 273 276 275 272 271 273 274 272 271 269
266 272 263 259 259 258 261 261 263 265 269 272 273 274 272 267 265 269 273 272 268 263 263 263 268 270 270 271 271 273 272 274 277 276 276 275 275 275 273 275 277 275 273 273
264 270 265 263 264 261 259 259 262 266 271 275 277 271 268 265 268 265 266 269 269 266 265 268 269 273 272 272 272 274 276 275 277 278 277 277 277 277 276 276 278 277 275 275
265 270 265 261 262 261 258 258 262 268 276 278 276 271 265 265 266 265 267 269 273 273 271 271 271 273 274 272 272 273 276 277 278 280 279 280 279 279 277 276 275 276 274 273
267 271 262 260 264 264 260 260 266 274 278 278 275 274 263 263 264 269 270 271 275 280 278 276 277 275 274 273 274 276 278 279 280 281 282 281 279 277 277 276 275 274 273 272
268 272 276 270 269 269 268 267 273 279 277 275 274 272 268 261 264 268 273 275 279 281 284 282 281 280 278 277 276 279 281 283 284 284 284 283 281 279 277 276 276 275 274 273
273 277 282 274 272 273 275 279 281 284 279 272 272 271 274 268 267 269 271 274 280 281 282 282 281 278 277 278 278 280 281 283 284 283 283 284 282 281 279 276 275 275 274 273
281 277 280 276 276 276 278 277 280 279 277 276 277 276 278 275 273 271 272 275 279 280 282 283 280 279 278 277 278 280 283 283 283 283 283 284 282 280 279 277 275 275 275 275
286 280 276 271 274 272 274 273 278 281 284 284 282 280 277 281 282 281 279 280 279 280 283 282 282 282 281 279 280 282 283 283 282 282 282 283 282 280 278 276 274 274 275 275
287 284 283 275 272 273 274 277 279 283 286 288 288 283 282 282 284 284 284 283 283 283 284 281 282 284 284 283 281 283 283 284 282 282 281 281 282 280 277 275 275 274 275 275
289 287 284 278 280 277 275 278 279 280 282 286 289 289 284 283 286 286 286 287 286 286 285 283 284 286 286 285 284 284 283 283 284 282 281 282 281 280 276 274 275 275 275 275
289 287 282 279 278 277 278 277 279 281 283 284 287 287 287 285 287 287 286 288 288 288 287 286 285 286 286 285 285 284 284 284 284 284 283 283 281 280 277 274 275 275 276 277
287 285 284 281 278 275 277 280 282 280 280 281 283 287 288 288 289 289 287 288 289 288 288 289 289 288 288 288 285 284 285 285 285 285 284 283 281 280 279 276 275 276 277 278
284 282 283 281 280 280 281 282 284 284 281 283 283 285 287 288 288 288 289 289 289 289 288 290 292 291 290 291 289 287 286 286 285 285 283 282 281 280 279 278 276 277 278 279
281 280 281 281 277 277 278 281 283 283 282 281 283 284 286 288 288 287 289 290 289 289 290 291 293 291 291 291 290 290 289 287 285 284 283 281 280 279 278 278 278 279 279 279
281 280 280 280 279 278 279 282 283 282 281 281 281 282 284 286 287 288 288 288 289 290 290 292 292 291 291 291 290 290 289 287 286 284 282 281 280 279 278 278 279 279 280 279
279 280 280 281 281 280 281 285 287 284 282 282 283 284 284 286 288 289 290 291 290 290 291 292 291 291 291 291 290 289 289 287 285 285 283 282 280 279 277 278 280 280 280 280
279 279 278 280 281 281 286 288 289 288 287 285 285 284 285 287 288 290 290 291 292 292 292 292 291 291 291 292 291 290 288 288 287 287 286 284 282 280 279 279 280 281 280 280
281 280 279 281 282 283 286 291 293 292 290 288 287 287 287 287 288 288 289 291 293 294 294 293 292 292 293 292 291 290 289 289 288 288 286 283 282 281 281 280 279 280 279 278
279 279 279 282 282 284 288 289 291 292 292 291 289 289 290 290 290 289 289 290 291 293 292 293 292 291 292 292 290 288 289 290 289 287 285 283 282 281 280 280 280 279 279 278
280 279 279 281 283 283 286 287 290 292 295 294 293 292 292 292 293 292 291 291 292 294 295 294 293 292 293 292 290 289 289 289 289 288 286 285 284 282 282 281 280 278 277 277
281 280 279 281 282 283 285 286 288 291 291 292 293 294 294 294 294 294 294 293 294 294 295 294 294 293 293 292 291 290 290 289 288 288 287 287 286 284 283 282 280 278 278 277
282 282 282 282 283 285 286 285 286 288 290 292 293 293 294 294 294 294 295 295 295 294 294 294 294 294 293 292 291 292 291 290 289 288 287 287 287 286 284 282 280 279 278 278
282 283 282 282 283 284 284 284 285 287 289 291 292 292 293 295 296 296 296 296 296 295 295 294 293 293 292 291 291 291 291 290 288 287 287 288 287 287 285 283 281 280 279 279
282 283 284 284 284 284 283 284 286 286 288 289 291 292 294 295 296 297 296 296 296 296 296 296 295 294 292 290 290 290 291 290 289 287 287 288 288 287 286 285 283 282 280 280
283 284 285 286 285 284 284 285 286 286 287 288 289 291 294 296 296 297 297 297 297 297 297 296 295 295 292 290 289 290 290 290 290 289 289 289 289 289 288 287 284 281 280 279
Height
5836 5836 5835 5836 5836 5836 5836 5836 5837 5837 5836 5836 5836 5836 5836 5836 5836 5836 5836 5836 5836 5836 5836 5836 5835 5835 5835 5835 5834 5834 5833 5833 5832 5831 5831 5830 5829 5829 5828 5827 5827 5826 5826 5825
5834 5833 5833 5833 5833 5833 5833 5834 5834 5834 5834 5834 5834 5834 5833 5834 5834 5834 5834 5833 5833 5833 5833 5833 5833 5832 5832 5832 5831 5830 5830 5829 5829 5828 5827 5826 5826 5825 5824 5823 5822 5822 5821 5821
5831 5832 5830 5830 5830 5831 5831 5831 5832 5832 5832 5832 5832 5832 5831 5831 5831 5831 5831 5831 5831 5831 5831 5830 5830 5829 5829 5828 5828 5827 5826 5826 5825 5824 5823 5822 5821 5821 5820 5819 5818 5817 5817 5816
5828 5828 5828 5828 5828 5828 5829 5829 5829 5829 5829 5829 5830 5830 5829 5829 5829 5829 5829 5829 5829 5828 5828 5827 5827 5826 5826 5825 5824 5824 5823 5822 5821 5820 5819 5818 5817 5816 5815 5814 5814 5813 5812 5812
5826 5826 5825 5825 5826 5826 5826 5827 5827 5827 5827 5828 5827 5828 5828 5826 5826 5827 5826 5826 5826 5825 5825 5824 5824 5823 5822 5821 5821 5820 5819 5817 5816 5815 5814 5813 5812 5811 5810 5809 5809 5808 5807 5807
5824 5823 5823 5823 5823 5824 5824 5825 5825 5825 5825 5825 5825 5825 5825 5824 5824 5824 5824 5823 5823 5823 5822 5821 5820 5819 5818 5817 5816 5816 5814 5813 5812 5811 5810 5809 5807 5806 5805 5805 5804 5803 5802 5802
5821 5821 5821 5821 5821 5822 5822 5823 5823 5823 5823 5823 5823 5823 5823 5822 5822 5821 5821 5820 5820 5819 5819 5818 5817 5815 5814 5813 5812 5811 5810 5808 5807 5806 5805 5804 5802 5801 5800 5799 5798 5798 5797 5797
5819 5820 5819 5819 5819 5820 5820 5821 5822 5822 5821 5821 5820 5819 5820 5819 5818 5818 5818 5817 5816 5816 5815 5814 5813 5811 5810 5809 5808 5807 5805 5804 5802 5801 5800 5799 5797 5796 5795 5794 5793 5792 5792 5791
5817 5817 5817 5817 5816 5817 5817 5817 5818 5818 5818 5818 5817 5816 5816 5815 5815 5814 5814 5813 5813 5812 5811 5809 5808 5807 5805 5804 5803 5801 5800 5799 5797 5796 5795 5793 5792 5790 5789 5788 5787 5787 5786 5785
5814 5815 5814 5814 5814 5814 5815 5815 5815 5815 5814 5814 5814 5813 5813 5811 5811 5811 5810 5809 5808 5808 5806 5805 5804 5802 5800 5799 5797 5796 5794 5793 5792 5790 5789 5787 5786 5785 5784 5782 5782 5781 5780 5780
5812 5812 5812 5811 5811 5811 5812 5812 5811 5811 5811 5811 5810 5812 5809 5808 5807 5806 5806 5805 5804 5803 5802 5800 5799 5797 5795 5793 5792 5790 5789 5787 5786 5784 5783 5781 5780 5778 5777 5777 5776 5775 5774 5774
5809 5809 5808 5809 5808 5808 5808 5808 5808 5808 5808 5807 5807 5809 5805 5804 5803 5802 5801 5800 5799 5798 5797 5795 5793 5792 5790 5788 5786 5784 5783 5781 5779 5778 5776 5774 5773 5772 5771 5770 5769 5769 5768 5767
5806 5806 5805 5805 5807 5806 5804 5804 5804 5804 5803 5803 5802 5804 5800 5799 5798 5797 5796 5795 5794 5792 5791 5789 5788 5786 5783 5781 5780 5778 5776 5774 5773 5771 5769 5768 5766 5765 5764 5763 5763 5762 5761 5761
5802 5802 5803 5803 5802 5801 5801 5800 5800 5799 5799 5798 5798 5798 5796 5794 5793 5792 5791 5789 5788 5786 5785 5783 5781 5779 5777 5775 5773 5771 5769 5767 5765 5764 5762 5761 5760 5758 5757 5756 5756 5755 5754 5753
5798 5798 5797 5797 5797 5796 5796 5796 5795 5794 5794 5793 5793 5792 5791 5789 5788 5786 5785 5784 5782 5781 5779 5777 5775 5773 5771 5769 5767 5764 5762 5760 5758 5756 5755 5754 5752 5751 5750 5749 5749 5748 5747 5746
5793 5793 5793 5793 5792 5792 5791 5791 5790 5789 5788 5788 5787 5786 5785 5783 5782 5781 5779 5778 5776 5774 5773 5771 5769 5766 5764 5762 5760 5757 5755 5753 5751 5749 5747 5746 5745 5744 5743 5742 5741 5740 5739 5738
5789 5789 5788 5788 5787 5786 5786 5786 5785 5784 5783 5782 5781 5781 5779 5777 5776 5775 5773 5771 5770 5768 5766 5763 5761 5759 5757 5755 5753 5750 5748 5746 5744 5742 5740 5739 5737 5736 5735 5734 5733 5732 5731 5730
5784 5783 5783 5782 5783 5781 5783 5781 5779 5778 5777 5776 5775 5774 5773 5771 5769 5768 5766 5764 5763 5761 5759 5756 5754 5752 5750 5747 5745 5743 5740 5738 5736 5734 5733 5731 5729 5728 5727 5726 5725 5724 5722 5722
5779 5778 5777 5777 5776 5776 5777 5775 5773 5772 5771 5770 5769 5767 5766 5765 5763 5761 5759 5757 5755 5753 5751 5749 5747 5744 5742 5739 5737 5735 5733 5731 5728 5726 5724 5723 5721 5720 5718 5717 5716 5715 5714 5713
5773 5773 5772 5771 5770 5770 5772 5769 5767 5767 5765 5764 5762 5760 5759 5757 5756 5755 5752 5750 5748 5745 5743 5741 5739 5737 5734 5732 5729 5727 5725 5723 5720 5718 5716 5714 5713 5711 5710 5708 5707 5706 5705 5704
5768 5767 5766 5765 5764 5763 5764 5762 5761 5761 5760 5757 5755 5754 5752 5750 5749 5747 5744 5742 5740 5738 5736 5733 5731 5729 5726 5723 5721 5719 5716 5714 5712 5709 5707 5705 5704 5702 5700 5699 5698 5697 5696 5695
5761 5760 5759 5758 5757 5759 5757 5756 5755 5754 5752 5750 5749 5747 5745 5743 5741 5739 5737 5735 5732 5730 5728 5725 5723 5721 5718 5715 5713 5711 5708 5706 5703 5701 5699 5697 5695 5693 5691 5690 5688 5687 5687 5686
5754 5754 5753 5753 5753 5751 5750 5748 5747 5746 5744 5743 5742 5740 5738 5736 5734 5732 5729 5727 5725 5722 5720 5717 5715 5712 5710 5707 5704 5702 5700 5697 5695 5693 5691 5689 5686 5684 5682 5680 5679 5678 5677 5676
5747 5746 5745 5745 5744 5743 5742 5740 5739 5738 5737 5735 5734 5732 5731 5729 5726 5724 5721 5719 5716 5714 5711 5709 5706 5704 5701 5699 5696 5694 5691 5689 5687 5685 5683 5680 5678 5676 5673 5671 5670 5669 5667 5666
5740 5739 5738 5737 5737 5735 5734 5733 5731 5730 5729 5728 5726 5725 5723 5721 5718 5716 5713 5710 5708 5705 5703 5700 5697 5695 5692 5690 5687 5685 5683 5680 5678 5676 5674 5672 5669 5667 5665 5663 5661 5659 5658 5657
5732 5731 5730 5730 5729 5727 5726 5725 5723 5722 5721 5720 5718 5717 5715 5712 5710 5707 5705 5702 5700 5697 5694 5692 5689 5686 5683 5681 5678 5676 5674 5672 5669 5667 5665 5662 5660 5658 5655 5653 5651 5649 5648 5647